Regional Weather Roundup
Issued by NWS

Current Version | Previous Version | Text Only | Print | Product List | Glossary On
Versions: 1 2 3 4 5 6 7 8 9 10 11 12 13 14 15 16 17 18 19 20 21 22 23 24 25 26 27 28 29 30 31 32 33 34 35 36 37 38 39 40 41 42 43 44 45 46 47 48 49 50
000
ASUS44 KLIX 281712
RWRLA
LOUISIANA WEATHER ROUNDUP
NATIONAL WEATHER SERVICE NEW ORLEANS LA
1200 PM CDT FRI AUG 28 2015

NOTE: "FAIR" INDICATES FEW OR NO CLOUDS BELOW 12,000 FEET WITH NO
      SIGNIFICANT WEATHER AND/OR OBSTRUCTIONS TO VISIBILITY.
      SKY/WX - SKY CONDITION AND SIGNIFICANT WEATHER.
      TMP - AIR TEMPERATURE.    DP   - DEWPOINT TEMPERATURE.
      RH  - RELATIVE HUMIDITY.  PRES - PRESSURE.
      HX  - HEAT INDEX.         WCI  - WIND CHILL INDEX.

*  THESE STATIONS ARE NOT NWS OR FAA STATIONS AND ARE NOT UNDER
   NWS QUALITY CONTROL.

LAZ040-048-061>063-065-066-069-281800-
SOUTHEAST LOUISIANA

CITY           SKY/WX    TMP DP  RH WIND       PRES   REMARKS
N.O. AUDUBON   NOT AVBL
N.O. INTL ARPT MOSUNNY   86  66  51 N10       30.02F
N.O. LAKEFRONT MOSUNNY   84  68  58 N8        30.03F
N.O. DOWNTOWN* FAIR      86  66  51 N8        30.03S
RESERVE*       FAIR      87  65  46 N8        30.03F
SLIDELL        MOSUNNY   86  70  58 VRB3      30.01F
BATON ROUGE    SUNNY     87  62  43 VRB5      30.04F
BOOTHVILLE     SUNNY     89  63  41 VRB5      30.01S
BELLE CHASSE   MOSUNNY   86  68  54 VRB5      30.01F
BOGALUSA*      NOT AVBL
GALLIANO*      SUNNY     88  66  48 N5        30.01F
NEW ROADS*     FAIR      85  60  43 N6        30.04F
GONZALES*      FAIR      85  62  45 NE5       30.03F
HAMMOND*       SUNNY     90  59  35 NE6       30.04F
HOUMA*         NOT AVBL
PORT FOURCHON* SUNNY     84  66  54 N7        30.02F

$$

LAZ041-044-053-054-281800-
SOUTHWEST LOUISIANA

CITY           SKY/WX    TMP DP  RH WIND       PRES   REMARKS
LAKE CHARLES   SUNNY     87  57  35 CALM      30.03F
LAFAYETTE      SUNNY     86  61  42 VRB3      30.03F
PATTERSON      PTSUNNY   84  63  48 N6        30.05S
SALT POINT       N/A     86  62  44 CALM      30.02S
NEW IBERIA     SUNNY     87  62  43 CALM      30.04F
CHENAULT AIRPK SUNNY     84  59  42 CALM      30.03F

$$

LAZ027-028-281800-
CENTRAL LOUISIANA

CITY           SKY/WX    TMP DP  RH WIND       PRES   REMARKS
FORT POLK      SUNNY     83  60  44 NW3       30.03F
ALEXANDRIA INT SUNNY     84  60  44 VRB3      30.03F
ALEXANDRIA     SUNNY     89  59  36 CALM      30.05F

$$

LAZ001-002-281800-
NORTHWEST LOUISIANA

CITY           SKY/WX    TMP DP  RH WIND       PRES   REMARKS
SHREVEPORT     MOSUNNY   85  59  41 CALM      30.05S
BARKSDALE AFB  SUNNY     84  59  43 VRB5      30.05F
DTN SHREVEPORT SUNNY     83  61  47 E3        30.06S

$$

LAZ014-016-281800-
NORTHEAST LOUISIANA

CITY           SKY/WX    TMP DP  RH WIND       PRES   REMARKS
MONROE         SUNNY     86  60  41 NE5       30.07S
TALLULAH       SUNNY     85  56  37 VRB6      30.06S

$$



USA.gov is the U.S. government's official web portal to all federal, state and local government web resources and services.